Change the Weather History Date:

Wednesday, October 24, 2012

  Actual Average Record
Temperature  
Mean Temperature 71 °F -  
Max Temperature 76 °F 78 °F 84 °F (1997)
Min Temperature 66 °F 64 °F 62 °F (1998)
Cooling Degree Days 6    
Growing Degree Days 21 (Base 50)    
Moisture  
Dew Point 66 °F    
Average Humidity 91    
Maximum Humidity 100    
Minimum Humidity 70    
Precipitation  
Precipitation 0.94 in 0.23 in - ()
Sea Level Pressure  
Sea Level Pressure 29.90 in    
Wind  
Wind Speed 3 mph ()    
Max Wind Speed 13 mph    
Max Gust Speed -    
Visibility 4.6 miles    
Events Fog , Rain    
Averages and records for this station are not official NWS values.
T = Trace of Precipitation, MM = Missing Value Source: Averaged Metar Reports

Daily Weather History Graph

Daily Weather History Graph

Search for Another Location

Airport or City:

Trip Planner

Search our weather history database for the weather conditions in past years. The results will help you decide how hot, cold, wet, or windy it might be!

Date:

Astronomy

Oct. 24, 2012 Rise Set
Actual Time 5:26 AM CST 5:15 PM CST
Civil Twilight 5:04 AM CST 5:37 PM CST
Nautical Twilight 4:39 AM CST 6:01 PM CST
Astronomical Twilight 4:15 AM CST 6:26 PM CST
Moon 1:45 PM CST (10/24) 1:12 AM CST (10/24)
Length of Visible Light 12h 32m
Length of Day
11h 49m
Waxing Gibbous, 76% of the Moon is Illuminated
Oct 24
Waxing Gibbous
Oct 29
Full
Nov 6
Last Quarter
Nov 13
New
Nov 20
First Quarter

Hourly Weather History & Observations

Time (CST) Temp. Dew Point Humidity Pressure Visibility Wind Dir Wind Speed Gust Speed Precip Events Conditions
12:00 AM 69 °F 67 °F 92% 29.76 in 1 mi Calm Calm - - Fog Patches of Fog
12:00 AM 69.8 °F 68.0 °F 94% 29.92 in 5.0 mi Calm Calm - N/A Fog Patches of Fog
1:00 AM 69.8 °F 68.0 °F 94% 29.90 in 3.1 mi Calm Calm - N/A   Light Drizzle
1:24 AM 68.0 °F 66.2 °F 94% 29.89 in 1.9 mi SW 1.2 mph - N/A   Mostly Cloudy
2:00 AM 69.8 °F 68.0 °F 94% 29.89 in 3.1 mi WNW 2.3 mph - N/A   Light Drizzle
2:37 AM 68.0 °F 66.2 °F 94% 29.88 in 1.9 mi WSW 2.3 mph - N/A Rain Rain
3:00 AM 67 °F 66 °F 94% 29.76 in 0 mi WSW 5.8 mph - - Rain Heavy Rain
3:00 AM 68.0 °F 66.2 °F 94% 29.89 in 0.9 mi WSW 5.8 mph - N/A Rain Heavy Rain
4:00 AM 68.0 °F 66.2 °F 94% 29.90 in 1.9 mi WSW 3.5 mph - N/A Rain Light Rain
5:00 AM 66.2 °F 66.2 °F 100% 29.92 in 2.5 mi WSW 4.6 mph - N/A   Drizzle
6:00 AM 67 °F 66 °F 95% 29.82 in 2 mi WNW 4.6 mph - - Rain Light Rain
6:00 AM 68.0 °F 66.2 °F 94% 29.95 in 5.6 mi WNW 4.6 mph - N/A Fog , Rain Light Rain
7:00 AM 68.0 °F 66.2 °F 94% 29.96 in 6.2 mi NNW 5.8 mph - N/A Fog Mostly Cloudy
8:00 AM 71.6 °F 68.0 °F 88% 29.97 in 6.2 mi SSW 2.3 mph - N/A   Mostly Cloudy
9:00 AM 74 °F 66 °F 70% 29.83 in 9 mi SW 5.8 mph - -   Partly Cloudy
9:00 AM 73.4 °F 66.2 °F 78% 29.98 in 6.2 mi SW 5.8 mph - N/A   Mostly Cloudy
10:00 AM 75.2 °F 66.2 °F 73% 29.96 in 6.2 mi SW 6.9 mph - N/A   Mostly Cloudy
10:24 AM 71.6 °F 66.2 °F 83% 29.96 in 6.2 mi SW 8.1 mph - N/A Rain Light Rain
11:00 AM 71.6 °F 68.0 °F 88% 29.95 in 6.2 mi West 3.5 mph - N/A Rain Light Rain
12:00 PM 71 °F 67 °F 84% 29.78 in 9 mi West 12.7 mph - - Fog Light Fog
12:00 PM 71.6 °F 68.0 °F 88% 29.92 in 6.2 mi West 12.7 mph - N/A Fog Mostly Cloudy
1:00 PM 68.0 °F 66.2 °F 94% 29.91 in 3.1 mi West 11.5 mph - N/A Rain Light Rain
2:00 PM 68.0 °F 66.2 °F 94% 29.89 in 1.2 mi West 6.9 mph - N/A Rain Light Rain
3:00 PM 68 °F 66 °F 92% 29.76 in 1 mi WSW 6.9 mph - - Rain Heavy Rain
3:00 PM 68.0 °F 66.2 °F 94% 29.89 in 1.2 mi WSW 6.9 mph - N/A Rain Rain
4:00 PM 68.0 °F 66.2 °F 94% 29.90 in 3.1 mi West 4.6 mph - N/A   Drizzle
5:00 PM 68.0 °F 66.2 °F 94% 29.91 in 6.2 mi NNW 3.5 mph - N/A Fog Mostly Cloudy
6:00 PM 68 °F 66 °F 90% 29.82 in 6 mi West 4.6 mph - - Rain Light Drizzle
6:00 PM 68.0 °F 66.2 °F 94% 29.93 in 6.2 mi West 4.6 mph - N/A Fog Light Drizzle
7:00 PM 68.0 °F 66.2 °F 94% 29.93 in 6.2 mi NW 2.3 mph - N/A   Mostly Cloudy
8:00 PM 68.0 °F 66.2 °F 94% 29.94 in 6.2 mi Calm Calm - N/A   Mostly Cloudy
9:00 PM 68 °F 65 °F 88% 29.84 in 12 mi West 2.3 mph - -   Overcast
9:00 PM 68.0 °F 66.2 °F 94% 29.96 in 6.2 mi West 2.3 mph - N/A   Mostly Cloudy
10:00 PM 68.0 °F 66.2 °F 94% 29.97 in 6.2 mi NW 4.6 mph - N/A   Mostly Cloudy
11:00 PM 68.0 °F 66.2 °F 94% 29.97 in 6.2 mi West 4.6 mph - N/A   Mostly Cloudy